Flag for Germany Weather past 2 weeks in Burg, Saxony-Anhalt, Germany

Now
44 °F

Partly sunny.


Feels Like: 39 °F
Forecast: 38 / 49 °F
Wind: 8 mph from West

Location: Magdeburg

Current Time: Mar 30, 2015 at 9:38:02 AM

Latest Report: Mar 30, 2015 at 9:00 AM


Visibility: 37 mi

Pressure: 29.29 "Hg

Humidity: 72%

Dew point: 35 °F

Location of BurgLocation

Historic Weather in Burg — Graph

°F

Burg temperature yesterday

Maximum temperature yesterday: 53 °F (at 11:00 AM)
Minimum temperature yesterday: 47 °F (at 12:00 AM)
Average temperature yesterday: 50 °F

Past Weeks' High & Low Weather Summary

 TemperatureHumidityPressure
High61 °F (Mar 25, 5:00 PM)96% (Mar 21, 3:00 AM)30.43 "Hg (Mar 21, 3:00 AM)
Low27 °F (Mar 23, 5:00 AM)29% (Mar 19, 5:00 PM)29.12 "Hg (Mar 30, 12:00 AM)
Average44 °F71%30.05 "Hg
* Reported Mar 15 7:00 AM — Mar 30 8:00 AM, Burg, Weather by CustomWeather, © 2015

Note: Actual official high and low records may vary slightly from our data, if they occured in-between our weather recording intervals... More about our weather records

Advertising

Burg weather history for previous 24 hours

 ConditionsComfort  
Time TempWeatherWind HumidityBarometerVisibility
8:00 AM
Mon, Mar 30
41 °FPartly sunny.9 mph77%29.29 "Hg37 mi
7:00 AM42 °FSprinkles. Partly sunny.6 mph81%29.26 "Hg37 mi
6:00 AM42 °FOvercast.7 mph81%29.23 "Hg10 mi
4:00 AM44 °FOvercast.9 mph75%29.23 "Hg40 mi
3:00 AM44 °FPassing clouds.10 mph73%29.21 "Hg43 mi
2:00 AM45 °FPassing clouds.9 mph73%29.21 "Hg43 mi
1:00 AM47 °FPassing clouds.12 mph73%29.15 "Hg43 mi
12:00 AM49 °FOvercast.9 mph77%29.12 "Hg43 mi
10:00 PM
Sun, Mar 29
49 °FRain. Overcast.6 mph92%29.15 "Hg2 mi
9:00 PM50 °FLight rain. Overcast.5 mph91%29.18 "Hg4 mi
8:00 PM50 °FLight rain. Overcast.6 mph88%29.23 "Hg7 mi
7:00 PM51 °FLight rain. Overcast.5 mph84%29.29 "Hg34 mi
6:00 PM51 °FLight rain. Overcast.5 mph83%29.35 "Hg10 mi
4:00 PM52 °FLight rain. Overcast.6 mph77%29.41 "Hg12 mi
3:00 PM51 °FLight rain. Overcast.3 mph86%29.47 "Hg9 mi
2:00 PM52 °FLight rain. Overcast.5 mph78%29.50 "Hg12 mi
1:00 PM53 °FLight rain. Overcast.5 mph72%29.54 "Hg19 mi
12:00 PM53 °FOvercast.6 mph67%29.57 "Hg37 mi
11:00 AM53 °FOvercast.6 mph69%29.58 "Hg37 mi
10:00 AM53 °FOvercast.7 mph70%29.59 "Hg37 mi
9:00 AM52 °FOvercast.5 mph75%29.60 "Hg28 mi
Weather by CustomWeather, © 2015

See weather overviewHow to use our weather pages